This demonstration page uses our WeatherBlox Daily Observations layout. Learn more.

38.88101, -77.10428

Hourly Observations for October 15, 2016

Temp ( °F °C ) Dew Point ( °F °C ) Humidity (%) Winds ( mph kmh ) Pressure ( in mb ) Visibility ( mi km ) Precip ( " mm )
12:52 am 00:52 Cloudy 56 13.3 48 8.9 75 75 Calm 30.39 1029 10 16.09344 0 0
1:52 am 01:52 Cloudy 55 12.8 48 8.9 77 77 Calm 30.36 1028 10 16.09344 0 0
2:52 am 02:52 Cloudy 53 11.7 48 8.9 83 83 SW 3 6 30.36 1028 10 16.09344 0 0
3:52 am 03:52 Partly Cloudy 54 12.2 47 8.3 77 77 Calm 30.36 1028 10 16.09344 0 0
4:52 am 04:52 Mostly Clear 53 11.7 48 8.9 83 83 Calm 30.36 1028 10 16.09344 0 0
5:52 am 05:52 Clear 51 10.6 48 8.9 89 89 Calm 30.39 1029 10 16.09344 0 0
6:52 am 06:52 Mostly Clear 50 10 47 8.3 89 89 Calm 30.39 1029 10 16.09344 0 0
7:52 am 07:52 Mostly Sunny 51 10.6 48 8.9 89 89 ENE 5 7 30.42 1030 10 16.09344 0 0
8:52 am 08:52 Mostly Sunny 53 11.7 49 9.4 86 86 NE 3 6 30.42 1030 10 16.09344 0 0
9:52 am 09:52 Mostly Sunny 57 13.9 50 10 78 78 Calm 30.42 1030 10 16.09344 0 0
10:52 am 10:52 Mostly Sunny 61 16.1 47 8.3 60 60 S 7 11 30.42 1030 10 16.09344 0 0
11:52 am 11:52 Mostly Sunny 63 17.2 45 7.2 52 52 S 8 13 30.42 1030 10 16.09344 0 0
12:52 pm 12:52 Mostly Sunny 66 18.9 43 6.1 43 43 S 7 11 30.42 1030 10 16.09344 0 0
1:52 pm 13:52 Mostly Sunny 66 18.9 44 6.7 45 45 S 7 11 30.36 1028 10 16.09344 0 0
2:52 pm 14:52 Mostly Sunny 68 20 46 7.8 45 45 SSW 5 7 30.36 1028 10 16.09344 0 0
3:52 pm 15:52 Mostly Sunny 68 20 48 8.9 49 49 S 8 13 30.33 1027 10 16.09344 0 0
4:52 pm 16:52 Mostly Sunny 68 20 47 8.3 47 47 S 10 17 30.33 1027 10 16.09344 0 0
5:52 pm 17:52 Partly Cloudy 65 18.3 46 7.8 51 51 S 12 19 30.33 1027 10 16.09344 0 0
6:52 pm 18:52 Partly Cloudy 63 17 48 9 59 59 S 8 13 30.33 1027 10 16.09344 0 0
7:52 pm 19:52 Partly Cloudy 60 15.6 50 10 70 70 SSE 5 7 30.33 1027 10 16.09344 0 0
8:52 pm 20:52 Partly Cloudy 58 14.4 50 10 75 75 S 7 11 30.33 1027 10 16.09344 0 0
9:52 pm 21:52 Mostly Clear 57 13.9 50 10 78 78 S 7 11 30.33 1027 10 16.09344 0 0
10:52 pm 22:52 Clear 57 13.9 51 10.6 81 81 S 8 13 30.3 1026 10 16.09344 0 0
11:52 pm 23:52 Clear 56 13.3 51 10.6 84 84 SSW 5 7 30.3 1026 10 16.09344 0 0

Powered by AerisWeather